Regional Weather Roundup
Issued by NWS Little Rock, AR

Home | Current Version | Previous Version | Graphics & Text | Print | Product List | Glossary On
Versions: 1 2 3 4 5 6 7 8 9 10 11 12 13 14 15 16 17 18 19 20 21 22 23 24 25 26 27 28 29 30 31 32 33 34 35 36 37 38 39 40 41 42 43 44 45 46 47 48 49 50
000
ASUS44 KLZK 221812
RWRLZK

WEATHER ROUNDUP FOR ARKANSAS
NATIONAL WEATHER SERVICE LITTLE ROCK AR
1200 PM CST WED FEB 22 2017

NOTE: "FAIR" INDICATES FEW OR NO CLOUDS BELOW 12,000 FEET WITH NO
SIGNIFICANT WEATHER AND/OR OBSTRUCTIONS TO VISIBILITY.

ARZ001-003-010-029-221900-
NORTHWEST ARKANSAS

CITY           SKY/WX    TMP DP  RH WIND       PRES   REMARKS
FAYETTEVILLE   SUNNY     72  54  53 SW7       29.85F
6HR MIN TEMP:  52; 6HR MAX TEMP:  72;

FORT SMITH     SUNNY     68  55  63 NE6       29.85F
6HR MIN TEMP:  49; 6HR MAX TEMP:  69;

HARRISON       SUNNY     63  56  78 VRB3      29.87F
6HR MIN TEMP:  55; 6HR MAX TEMP:  64;

BENTONVILLE    SUNNY     68  54  60 SW8       29.87F
6HR MIN TEMP:  54; 6HR MAX TEMP:  68;

ROGERS         SUNNY     69  54  58 VRB6      29.86F
6HR MIN TEMP:  54; 6HR MAX TEMP:  69;

SILOAM SPGS    SUNNY     70  54  56 S9        29.84F
6HR MIN TEMP:  52; 6HR MAX TEMP:  70;

HIGHFILL       SUNNY     69  55  60 S7        29.85F
6HR MIN TEMP:  54; 6HR MAX TEMP:  69;

SPRINGDALE     SUNNY     70  55  60 SW3       29.88F
$$

ARZ004-005-016-221900-
NORTH CENTRAL ARKANSAS

CITY           SKY/WX    TMP DP  RH WIND       PRES   REMARKS
BATESVILLE     CLOUDY    59  55  88 CALM      29.90S
6HR MIN TEMP:  55; 6HR MAX TEMP:  59;

FLIPPIN        PTSUNNY   63  52  67 S5        29.85F
6HR MIN TEMP:  54; 6HR MAX TEMP:  63;

MTN HOME       MOSUNNY   64  55  72 SW7       29.86F
6HR MIN TEMP:  53; 6HR MAX TEMP:  64;

$$

ARZ040-041-221900-
WEST CENTRAL ARKANSAS

CITY           SKY/WX    TMP DP  RH WIND       PRES   REMARKS
MENA           SUNNY     73  59  60 E5        29.87F
MOUNT IDA      PTSUNNY   68  56  65 VRB5      29.86F
6HR MIN TEMP:  54; 6HR MAX TEMP:  69;

$$

ARZ009-017-025-026-028-221900-
NORTHEAST ARKANSAS

CITY           SKY/WX    TMP DP  RH WIND       PRES   REMARKS
CORNING        CLOUDY    66  61  82 SW5       29.86F
JONESBORO      CLOUDY    63  57  81 SE6       29.88S
6HR MIN TEMP:  59; 6HR MAX TEMP:  64;

NEWPORT        CLOUDY    66  58  75 CALM      29.88F
6HR MIN TEMP:  54; 6HR MAX TEMP:  67;

WALNUT RIDGE   MOSUNNY   64  57  77 NW5       29.87F
6HR MIN TEMP:  55; 6HR MAX TEMP:  64;

BLYTHEVILLE    SUNNY     70  59  68 S5        29.86F
6HR MIN TEMP:  54; 6HR MAX TEMP:  71;

NW BLYTHEVILLE MOSUNNY   68  57  68 SW3       29.85F
$$

ARZ022-023-033-042-044-221900-
CENTRAL ARKANSAS

CITY           SKY/WX    TMP DP  RH WIND       PRES   REMARKS
LITTLE ROCK    CLOUDY    58  58 100 SE3       29.90F
6HR MIN TEMP:  56; 6HR MAX TEMP:  59;

N LITTLE ROCK    N/A     58  57  97 CALM      29.90
6HR MIN TEMP:  55; 6HR MAX TEMP:  58;

JACKSONVILLE   CLOUDY    58  58 100 CALM      29.89F
6HR MIN TEMP:  56; 6HR MAX TEMP:  58;

SEARCY         CLOUDY    62  59  90 W3        29.90F
6HR MIN TEMP:  57; 6HR MAX TEMP:  62; 6HR PCP:  0.01;

HOT SPRINGS    PTSUNNY   63  56  78 VRB5      29.90F
6HR MIN TEMP:  58; 6HR MAX TEMP:  63;

RUSSELLVILLE   CLOUDY    60  56  86 SE6       29.88F
6HR MIN TEMP:  48; 6HR MAX TEMP:  60;

CLINTON        CLOUDY    61  55  82 S5        29.89F
$$

ARZ036-221900-
EAST ARKANSAS

CITY           SKY/WX    TMP DP  RH WIND       PRES   REMARKS
WEST MEMPHIS   SUNNY     72  58  61 SE9       29.84F
6HR MIN TEMP:  57; 6HR MAX TEMP:  72;

$$

ARZ050-053-066-070-073-221900-
SOUTHWEST ARKANSAS

CITY           SKY/WX    TMP DP  RH WIND       PRES   REMARKS
ARKADELPHIA      N/A     61  56  83 MISG        N/A
CAMDEN         CLOUDY    66  54  63 SE5       29.90F
TEXARKANA      MOSUNNY   65  57  75 VRB5      29.90F
6HR MIN TEMP:  51; 6HR MAX TEMP:  65;

EL DORADO      CLOUDY    64  56  75 CALM      29.91S
6HR MIN TEMP:  58; 6HR MAX TEMP:  64;

DE QUEEN       SUNNY     70  59  68 SE6       29.86F
6HR MIN TEMP:  44; 6HR MAX TEMP:  70;

$$

ARZ056-057-069-221900-
SOUTHEAST ARKANSAS

CITY           SKY/WX    TMP DP  RH WIND       PRES   REMARKS
PINE BLUFF     CLOUDY    60  58  92 W6        29.91F
6HR MIN TEMP:  56; 6HR MAX TEMP:  60;

STUTTGART      CLOUDY    64  54  68 W7        29.90S
6HR MIN TEMP:  55; 6HR MAX TEMP:  64;

MONTICELLO     CLOUDY    62  56  80 NW7       29.90F
6HR MIN TEMP:  56; 6HR MAX TEMP:  62;


$$





USA.gov is the U.S. government's official web portal to all federal, state and local government web resources and services.